Year,Month,Day,Hour,Minute,Value (Times are PST for temperature in C)
2017,08,02,00,00,20.20
2017,08,02,00,01,20.20
2017,08,02,00,02,20.20
2017,08,02,00,03,20.20
2017,08,02,00,04,20.10
2017,08,02,00,05,20.10
2017,08,02,00,06,20.10
2017,08,02,00,07,20.10
2017,08,02,00,08,20.00
2017,08,02,00,09,20.00
2017,08,02,00,10,20.00
2017,08,02,00,11,20.00
2017,08,02,00,12,20.00
2017,08,02,00,13,19.90
2017,08,02,00,14,19.90
2017,08,02,00,15,19.90
2017,08,02,00,16,19.90
2017,08,02,00,17,19.90
2017,08,02,00,18,19.90
2017,08,02,00,19,19.80
2017,08,02,00,20,19.80
2017,08,02,00,21,19.80
2017,08,02,00,22,19.80
2017,08,02,00,23,19.80
2017,08,02,00,24,19.80
2017,08,02,00,25,19.80
2017,08,02,00,26,19.80
2017,08,02,00,27,19.70
2017,08,02,00,28,19.70
2017,08,02,00,29,19.70
2017,08,02,00,30,19.70
2017,08,02,00,31,19.70
2017,08,02,00,32,19.70
2017,08,02,00,33,19.70
2017,08,02,00,34,19.70
2017,08,02,00,35,19.70
2017,08,02,00,36,19.70
2017,08,02,00,37,19.70
2017,08,02,00,38,19.70
2017,08,02,00,39,19.70
2017,08,02,00,40,19.70
2017,08,02,00,41,19.70
2017,08,02,00,42,19.60
2017,08,02,00,43,19.60
2017,08,02,00,44,19.60
2017,08,02,00,45,19.60
2017,08,02,00,46,19.60
2017,08,02,00,47,19.50
2017,08,02,00,48,19.50
2017,08,02,00,49,19.40
2017,08,02,00,50,19.40
2017,08,02,00,51,19.40
2017,08,02,00,52,19.40
2017,08,02,00,53,19.30
2017,08,02,00,54,19.30
2017,08,02,00,55,19.30
2017,08,02,00,56,19.20
2017,08,02,00,57,19.20
2017,08,02,00,58,19.20
2017,08,02,00,59,19.10
2017,08,02,01,00,19.10
2017,08,02,01,01,19.10
2017,08,02,01,02,19.00
2017,08,02,01,03,19.00
2017,08,02,01,04,18.90
2017,08,02,01,05,18.90
2017,08,02,01,06,18.90
2017,08,02,01,07,18.90
2017,08,02,01,08,18.90
2017,08,02,01,09,18.90
2017,08,02,01,10,18.90
2017,08,02,01,11,18.90
2017,08,02,01,12,18.90
2017,08,02,01,13,18.90
2017,08,02,01,14,18.90
2017,08,02,01,15,18.90
2017,08,02,01,16,18.90
2017,08,02,01,17,18.90
2017,08,02,01,18,18.90
2017,08,02,01,19,18.80
2017,08,02,01,20,18.80
2017,08,02,01,21,18.80
2017,08,02,01,22,18.80
2017,08,02,01,23,18.80
2017,08,02,01,24,18.80
2017,08,02,01,25,18.80
2017,08,02,01,26,18.70
2017,08,02,01,27,18.70
2017,08,02,01,28,18.70
2017,08,02,01,29,18.70
2017,08,02,01,30,18.70
2017,08,02,01,31,18.70
2017,08,02,01,32,18.70
2017,08,02,01,33,18.70
2017,08,02,01,34,18.70
2017,08,02,01,35,18.60
2017,08,02,01,36,18.60
2017,08,02,01,37,18.60
2017,08,02,01,38,18.60
2017,08,02,01,39,18.60
2017,08,02,01,40,18.60
2017,08,02,01,41,18.60
2017,08,02,01,42,18.50
2017,08,02,01,43,18.50
2017,08,02,01,44,18.50
2017,08,02,01,45,18.40
2017,08,02,01,46,18.40
2017,08,02,01,47,18.40
2017,08,02,01,48,18.40
2017,08,02,01,49,18.30
2017,08,02,01,50,18.30
2017,08,02,01,51,18.30
2017,08,02,01,52,18.30
2017,08,02,01,53,18.30
2017,08,02,01,54,18.30
2017,08,02,01,55,18.20
2017,08,02,01,56,18.20
2017,08,02,01,57,18.20
2017,08,02,01,58,18.20
2017,08,02,01,59,18.20
2017,08,02,02,00,18.20
2017,08,02,02,01,18.20
2017,08,02,02,02,18.20
2017,08,02,02,03,18.20
2017,08,02,02,04,18.10
2017,08,02,02,05,18.10
2017,08,02,02,06,18.10
2017,08,02,02,07,18.10
2017,08,02,02,08,18.10
2017,08,02,02,09,18.10
2017,08,02,02,10,18.10
2017,08,02,02,11,18.10
2017,08,02,02,12,18.10
2017,08,02,02,13,18.10
2017,08,02,02,14,18.10
2017,08,02,02,15,18.10
2017,08,02,02,16,18.10
2017,08,02,02,17,18.10
2017,08,02,02,18,18.10
2017,08,02,02,19,18.10
2017,08,02,02,20,18.10
2017,08,02,02,21,18.10
2017,08,02,02,22,18.00
2017,08,02,02,23,18.00
2017,08,02,02,24,17.90
2017,08,02,02,25,17.90
2017,08,02,02,26,17.90
2017,08,02,02,27,17.80
2017,08,02,02,28,17.80
2017,08,02,02,29,17.80
2017,08,02,02,30,17.80
2017,08,02,02,31,17.70
2017,08,02,02,32,17.70
2017,08,02,02,33,17.70
2017,08,02,02,34,17.70
2017,08,02,02,35,17.70
2017,08,02,02,36,17.70
2017,08,02,02,37,17.70
2017,08,02,02,38,17.70
2017,08,02,02,39,17.60
2017,08,02,02,40,17.60
2017,08,02,02,41,17.60
2017,08,02,02,42,17.60
2017,08,02,02,43,17.60
2017,08,02,02,44,17.60
2017,08,02,02,45,17.60
2017,08,02,02,46,17.50
2017,08,02,02,47,17.50
2017,08,02,02,48,17.50
2017,08,02,02,49,17.50
2017,08,02,02,50,17.50
2017,08,02,02,51,17.50
2017,08,02,02,52,17.50
2017,08,02,02,53,17.50
2017,08,02,02,54,17.50
2017,08,02,02,55,17.50
2017,08,02,02,56,17.50
2017,08,02,02,57,17.50
2017,08,02,02,58,17.40
2017,08,02,02,59,17.40
2017,08,02,03,00,17.40
2017,08,02,03,01,17.40
2017,08,02,03,02,17.40
2017,08,02,03,03,17.30
2017,08,02,03,04,17.30
2017,08,02,03,05,17.30
2017,08,02,03,06,17.30
2017,08,02,03,07,17.30
2017,08,02,03,08,17.30
2017,08,02,03,09,17.30
2017,08,02,03,10,17.30
2017,08,02,03,11,17.30
2017,08,02,03,12,17.30
2017,08,02,03,13,17.30
2017,08,02,03,14,17.30
2017,08,02,03,15,17.30
2017,08,02,03,16,17.40
2017,08,02,03,17,17.40
2017,08,02,03,18,17.40
2017,08,02,03,19,17.50
2017,08,02,03,20,17.50
2017,08,02,03,21,17.50
2017,08,02,03,22,17.50
2017,08,02,03,23,17.60
2017,08,02,03,24,17.60
2017,08,02,03,25,17.60
2017,08,02,03,26,17.60
2017,08,02,03,27,17.60
2017,08,02,03,28,17.60
2017,08,02,03,29,17.60
2017,08,02,03,30,17.60
2017,08,02,03,31,17.60
2017,08,02,03,32,17.60
2017,08,02,03,33,17.50
2017,08,02,03,34,17.50
2017,08,02,03,35,17.40
2017,08,02,03,36,17.40
2017,08,02,03,37,17.40
2017,08,02,03,38,17.30
2017,08,02,03,39,17.30
2017,08,02,03,40,17.30
2017,08,02,03,41,17.30
2017,08,02,03,42,17.30
2017,08,02,03,43,17.30
2017,08,02,03,44,17.30
2017,08,02,03,45,17.40
2017,08,02,03,46,17.40
2017,08,02,03,47,17.40
2017,08,02,03,48,17.50
2017,08,02,03,49,17.50
2017,08,02,03,50,17.50
2017,08,02,03,51,17.60
2017,08,02,03,52,17.60
2017,08,02,03,53,17.60
2017,08,02,03,54,17.60
2017,08,02,03,55,17.70
2017,08,02,03,56,17.60
2017,08,02,03,57,17.60
2017,08,02,03,58,17.60
2017,08,02,03,59,17.60
2017,08,02,04,00,17.60
2017,08,02,04,01,17.60
2017,08,02,04,02,17.60
2017,08,02,04,03,17.60
2017,08,02,04,04,17.60
2017,08,02,04,05,17.50
2017,08,02,04,06,17.50
2017,08,02,04,07,17.50
2017,08,02,04,08,17.40
2017,08,02,04,09,17.40
2017,08,02,04,10,17.40
2017,08,02,04,11,17.40
2017,08,02,04,12,17.40
2017,08,02,04,13,17.40
2017,08,02,04,14,17.40
2017,08,02,04,15,17.40
2017,08,02,04,16,17.40
2017,08,02,04,17,17.40
2017,08,02,04,18,17.40
2017,08,02,04,19,17.40
2017,08,02,04,20,17.30
2017,08,02,04,21,17.30
2017,08,02,04,22,17.30
2017,08,02,04,23,17.30
2017,08,02,04,24,17.30
2017,08,02,04,25,17.20
2017,08,02,04,26,17.20
2017,08,02,04,27,17.20
2017,08,02,04,28,17.20
2017,08,02,04,29,17.20
2017,08,02,04,30,17.20
2017,08,02,04,31,17.20
2017,08,02,04,32,17.20
2017,08,02,04,33,17.20
2017,08,02,04,34,17.20
2017,08,02,04,35,17.20
2017,08,02,04,36,17.20
2017,08,02,04,37,17.20
2017,08,02,04,38,17.20
2017,08,02,04,39,17.10
2017,08,02,04,40,17.10
2017,08,02,04,41,17.10
2017,08,02,04,42,17.10
2017,08,02,04,43,17.00
2017,08,02,04,44,17.00
2017,08,02,04,45,17.00
2017,08,02,04,46,16.90
2017,08,02,04,47,16.90
2017,08,02,04,48,16.90
2017,08,02,04,49,16.90
2017,08,02,04,50,16.90
2017,08,02,04,51,16.90
2017,08,02,04,52,16.90
2017,08,02,04,53,16.80
2017,08,02,04,54,16.80
2017,08,02,04,55,16.80
2017,08,02,04,56,16.80
2017,08,02,04,57,16.70
2017,08,02,04,58,16.70
2017,08,02,04,59,16.70
2017,08,02,05,00,16.70
2017,08,02,05,01,16.70
2017,08,02,05,02,16.70
2017,08,02,05,03,16.70
2017,08,02,05,04,16.70
2017,08,02,05,05,16.70
2017,08,02,05,06,16.70
2017,08,02,05,07,16.70
2017,08,02,05,08,16.60
2017,08,02,05,09,16.60
2017,08,02,05,10,16.60
2017,08,02,05,11,16.60
2017,08,02,05,12,16.60
2017,08,02,05,13,16.50
2017,08,02,05,14,16.50
2017,08,02,05,15,16.40
2017,08,02,05,16,16.40
2017,08,02,05,17,16.30
2017,08,02,05,18,16.20
2017,08,02,05,19,16.20
2017,08,02,05,20,16.20
2017,08,02,05,21,16.20
2017,08,02,05,22,16.20
2017,08,02,05,23,16.20
2017,08,02,05,24,16.20
2017,08,02,05,25,16.20
2017,08,02,05,26,16.20
2017,08,02,05,27,16.20
2017,08,02,05,28,16.20
2017,08,02,05,29,16.20
2017,08,02,05,30,16.30
2017,08,02,05,31,16.30
2017,08,02,05,32,16.30
2017,08,02,05,33,16.30
2017,08,02,05,34,16.30
2017,08,02,05,35,16.30
2017,08,02,05,36,16.30
2017,08,02,05,37,16.30
2017,08,02,05,38,16.30
2017,08,02,05,39,16.30
2017,08,02,05,40,16.30
2017,08,02,05,41,16.30
2017,08,02,05,42,16.30
2017,08,02,05,43,16.30
2017,08,02,05,44,16.30
2017,08,02,05,45,16.40
2017,08,02,05,46,16.40
2017,08,02,05,47,16.40
2017,08,02,05,48,16.40
2017,08,02,05,49,16.50
2017,08,02,05,50,16.50
2017,08,02,05,51,16.50
2017,08,02,05,52,16.50
2017,08,02,05,53,16.50
2017,08,02,05,54,16.40
2017,08,02,05,55,16.40
2017,08,02,05,56,16.50
2017,08,02,05,57,16.50
2017,08,02,05,58,16.50
2017,08,02,05,59,16.50
2017,08,02,06,00,16.50
2017,08,02,06,01,16.50
2017,08,02,06,02,16.50
2017,08,02,06,03,16.50
2017,08,02,06,04,16.50
2017,08,02,06,05,16.50
2017,08,02,06,06,16.50
2017,08,02,06,07,16.50
2017,08,02,06,08,16.50
2017,08,02,06,09,16.50
2017,08,02,06,10,16.50
2017,08,02,06,11,16.50
2017,08,02,06,12,16.50
2017,08,02,06,13,16.50
2017,08,02,06,14,16.50
2017,08,02,06,15,16.50
2017,08,02,06,16,16.50
2017,08,02,06,17,16.50
2017,08,02,06,18,16.50
2017,08,02,06,19,16.50
2017,08,02,06,20,16.50
2017,08,02,06,21,16.40
2017,08,02,06,22,16.40
2017,08,02,06,23,16.40
2017,08,02,06,24,16.40
2017,08,02,06,25,16.30
2017,08,02,06,26,16.30
2017,08,02,06,27,16.30
2017,08,02,06,28,16.30
2017,08,02,06,29,16.30
2017,08,02,06,30,16.30
2017,08,02,06,31,16.30
2017,08,02,06,32,16.30
2017,08,02,06,33,16.30
2017,08,02,06,34,16.40
2017,08,02,06,35,16.40
2017,08,02,06,36,16.40
2017,08,02,06,37,16.40
2017,08,02,06,38,16.40
2017,08,02,06,39,16.40
2017,08,02,06,40,16.30
2017,08,02,06,41,16.30
2017,08,02,06,42,16.30
2017,08,02,06,43,16.30
2017,08,02,06,44,16.30
2017,08,02,06,45,16.30
2017,08,02,06,46,16.30
2017,08,02,06,47,16.40
2017,08,02,06,48,16.30
2017,08,02,06,49,16.30
2017,08,02,06,50,16.30
2017,08,02,06,51,16.40
2017,08,02,06,52,16.30
2017,08,02,06,53,16.30
2017,08,02,06,54,16.30
2017,08,02,06,55,16.30
2017,08,02,06,56,16.30
2017,08,02,06,57,16.30
2017,08,02,06,58,16.30
2017,08,02,06,59,16.30
2017,08,02,07,00,16.40
2017,08,02,07,01,16.40
2017,08,02,07,02,16.40
2017,08,02,07,03,16.50
2017,08,02,07,04,16.50
2017,08,02,07,05,16.50
2017,08,02,07,06,16.60
2017,08,02,07,07,16.60
2017,08,02,07,08,16.60
2017,08,02,07,09,16.60
2017,08,02,07,10,16.60
2017,08,02,07,11,16.70
2017,08,02,07,12,16.70
2017,08,02,07,13,16.70
2017,08,02,07,14,16.70
2017,08,02,07,15,16.70
2017,08,02,07,16,16.70
2017,08,02,07,17,16.80
2017,08,02,07,18,16.80
2017,08,02,07,19,16.80
2017,08,02,07,20,16.80
2017,08,02,07,21,16.90
2017,08,02,07,22,16.90
2017,08,02,07,23,16.90
2017,08,02,07,24,16.90
2017,08,02,07,25,16.90
2017,08,02,07,26,16.90
2017,08,02,07,27,16.90
2017,08,02,07,28,16.90
2017,08,02,07,29,16.90
2017,08,02,07,30,16.90
2017,08,02,07,31,16.90
2017,08,02,07,32,16.90
2017,08,02,07,33,17.00
2017,08,02,07,34,17.00
2017,08,02,07,35,17.00
2017,08,02,07,36,17.00
2017,08,02,07,37,17.00
2017,08,02,07,38,17.00
2017,08,02,07,39,17.00
2017,08,02,07,40,17.00
2017,08,02,07,41,17.10
2017,08,02,07,42,17.10
2017,08,02,07,43,17.10
2017,08,02,07,44,17.10
2017,08,02,07,45,17.10
2017,08,02,07,46,17.10
2017,08,02,07,47,17.20
2017,08,02,07,48,17.20
2017,08,02,07,49,17.20
2017,08,02,07,50,17.20
2017,08,02,07,51,17.30
2017,08,02,07,52,17.30
2017,08,02,07,53,17.30
2017,08,02,07,54,17.30
2017,08,02,07,55,17.30
2017,08,02,07,56,17.40
2017,08,02,07,57,17.30
2017,08,02,07,58,17.40
2017,08,02,07,59,17.40
2017,08,02,08,00,17.40
2017,08,02,08,01,17.40
2017,08,02,08,02,17.40
2017,08,02,08,03,17.40
2017,08,02,08,04,17.40
2017,08,02,08,05,17.50
2017,08,02,08,06,17.50
2017,08,02,08,07,17.50
2017,08,02,08,08,17.60
2017,08,02,08,09,17.60
2017,08,02,08,10,17.60
2017,08,02,08,11,17.70
2017,08,02,08,12,17.70
2017,08,02,08,13,17.70
2017,08,02,08,14,17.80
2017,08,02,08,15,17.80
2017,08,02,08,16,17.80
2017,08,02,08,17,17.90
2017,08,02,08,18,17.90
2017,08,02,08,19,17.90
2017,08,02,08,20,18.00
2017,08,02,08,21,18.00
2017,08,02,08,22,18.10
2017,08,02,08,23,18.10
2017,08,02,08,24,18.10
2017,08,02,08,25,18.20
2017,08,02,08,26,18.20
2017,08,02,08,27,18.30
2017,08,02,08,28,18.30
2017,08,02,08,29,18.30
2017,08,02,08,30,18.40
2017,08,02,08,31,18.40
2017,08,02,08,32,18.50
2017,08,02,08,33,18.50
2017,08,02,08,34,18.60
2017,08,02,08,35,18.60
2017,08,02,08,36,18.60
2017,08,02,08,37,18.70
2017,08,02,08,38,18.70
2017,08,02,08,39,18.80
2017,08,02,08,40,18.80
2017,08,02,08,41,18.90
2017,08,02,08,42,18.90
2017,08,02,08,43,19.00
2017,08,02,08,44,19.00
2017,08,02,08,45,19.10
2017,08,02,08,46,19.10
2017,08,02,08,47,19.20
2017,08,02,08,48,19.20
2017,08,02,08,49,19.30
2017,08,02,08,50,19.30
2017,08,02,08,51,19.40
2017,08,02,08,52,19.40
2017,08,02,08,53,19.50
2017,08,02,08,54,19.60
2017,08,02,08,55,19.60
2017,08,02,08,56,19.70
2017,08,02,08,57,19.70
2017,08,02,08,58,19.70
2017,08,02,08,59,19.80
2017,08,02,09,00,19.90
2017,08,02,09,01,19.90
2017,08,02,09,02,20.00
2017,08,02,09,03,20.00
2017,08,02,09,04,20.10
2017,08,02,09,05,20.10
2017,08,02,09,06,20.20
2017,08,02,09,07,20.20
2017,08,02,09,08,20.30
2017,08,02,09,09,20.30
2017,08,02,09,10,20.40
2017,08,02,09,11,20.40
2017,08,02,09,12,20.40
2017,08,02,09,13,20.50
2017,08,02,09,14,20.60
2017,08,02,09,15,20.60
2017,08,02,09,16,20.70
2017,08,02,09,17,20.70
2017,08,02,09,18,20.80
2017,08,02,09,19,20.80
2017,08,02,09,20,20.90
2017,08,02,09,21,20.90
2017,08,02,09,22,21.00
2017,08,02,09,23,21.00
2017,08,02,09,24,21.10
2017,08,02,09,25,21.20
2017,08,02,09,26,21.20
2017,08,02,09,27,21.30
2017,08,02,09,28,21.40
2017,08,02,09,29,21.40
2017,08,02,09,30,21.50
2017,08,02,09,31,21.60
2017,08,02,09,32,21.70
2017,08,02,09,33,21.70
2017,08,02,09,34,21.80
2017,08,02,09,35,21.90
2017,08,02,09,36,22.00
2017,08,02,09,37,22.10
2017,08,02,09,38,22.20
2017,08,02,09,39,22.30
2017,08,02,09,40,22.40
2017,08,02,09,41,22.50
2017,08,02,09,42,22.60
2017,08,02,09,43,22.70
2017,08,02,09,44,22.80
2017,08,02,09,45,22.80
2017,08,02,09,46,22.90
2017,08,02,09,47,23.00
2017,08,02,09,48,23.10
2017,08,02,09,49,23.20
2017,08,02,09,50,23.30
2017,08,02,09,51,23.30
2017,08,02,09,52,23.30
2017,08,02,09,53,23.40
2017,08,02,09,54,23.40
2017,08,02,09,55,23.40
2017,08,02,09,56,23.40
2017,08,02,09,57,23.40
2017,08,02,09,58,23.40
2017,08,02,09,59,23.40
2017,08,02,10,00,23.40
2017,08,02,10,01,23.40
2017,08,02,10,02,23.40
2017,08,02,10,03,23.40
2017,08,02,10,04,23.50
2017,08,02,10,05,23.50
2017,08,02,10,06,23.50
2017,08,02,10,07,23.50
2017,08,02,10,08,23.60
2017,08,02,10,09,23.60
2017,08,02,10,10,23.60
2017,08,02,10,11,23.70
2017,08,02,10,12,23.70
2017,08,02,10,13,23.70
2017,08,02,10,14,23.80
2017,08,02,10,15,23.80
2017,08,02,10,16,23.80
2017,08,02,10,17,23.90
2017,08,02,10,18,23.90
2017,08,02,10,19,23.90
2017,08,02,10,20,24.00
2017,08,02,10,21,24.00
2017,08,02,10,22,24.10
2017,08,02,10,23,24.20
2017,08,02,10,24,24.20
2017,08,02,10,25,24.30
2017,08,02,10,26,24.40
2017,08,02,10,27,24.50
2017,08,02,10,28,24.60
2017,08,02,10,29,24.60
2017,08,02,10,30,24.70
2017,08,02,10,31,24.80
2017,08,02,10,32,24.80
2017,08,02,10,33,24.90
2017,08,02,10,34,25.00
2017,08,02,10,35,25.00
2017,08,02,10,36,25.10
2017,08,02,10,37,25.10
2017,08,02,10,38,25.20
2017,08,02,10,39,25.30
2017,08,02,10,40,25.30
2017,08,02,10,41,25.40
2017,08,02,10,42,25.50
2017,08,02,10,43,25.50
2017,08,02,10,44,25.60
2017,08,02,10,45,25.60
2017,08,02,10,46,25.70
2017,08,02,10,47,25.70
2017,08,02,10,48,25.70
2017,08,02,10,49,25.70
2017,08,02,10,50,25.80
2017,08,02,10,51,25.80
2017,08,02,10,52,25.80
2017,08,02,10,53,25.80
2017,08,02,10,54,25.80
2017,08,02,10,55,25.90
2017,08,02,10,56,25.90
2017,08,02,10,57,25.90
2017,08,02,10,58,26.00
2017,08,02,10,59,26.00
2017,08,02,11,00,26.10
2017,08,02,11,01,26.10
2017,08,02,11,02,26.20
2017,08,02,11,03,26.30
2017,08,02,11,04,26.30
2017,08,02,11,05,26.40
2017,08,02,11,06,26.50
2017,08,02,11,07,26.60
2017,08,02,11,08,26.60
2017,08,02,11,09,26.70
2017,08,02,11,10,26.80
2017,08,02,11,11,26.90
2017,08,02,11,12,26.90
2017,08,02,11,13,26.90
2017,08,02,11,14,26.90
2017,08,02,11,15,27.00
2017,08,02,11,16,27.00
2017,08,02,11,17,27.10
2017,08,02,11,18,27.10
2017,08,02,11,19,27.10
2017,08,02,11,20,27.20
2017,08,02,11,21,27.20
2017,08,02,11,22,27.30
2017,08,02,11,23,27.30
2017,08,02,11,24,27.30
2017,08,02,11,25,27.30
2017,08,02,11,26,27.30
2017,08,02,11,27,27.40
2017,08,02,11,28,27.50
2017,08,02,11,29,27.50
2017,08,02,11,30,27.50
2017,08,02,11,31,27.60
2017,08,02,11,32,27.60
2017,08,02,11,33,27.70
2017,08,02,11,34,27.70
2017,08,02,11,35,27.70
2017,08,02,11,36,27.80
2017,08,02,11,37,27.80
2017,08,02,11,38,27.80
2017,08,02,11,39,27.90
2017,08,02,11,40,27.90
2017,08,02,11,41,28.00
2017,08,02,11,42,28.00
2017,08,02,11,43,28.10
2017,08,02,11,44,28.10
2017,08,02,11,45,28.20
2017,08,02,11,46,28.20
2017,08,02,11,47,28.20
2017,08,02,11,48,28.30
2017,08,02,11,49,28.30
2017,08,02,11,50,28.30
2017,08,02,11,51,28.40
2017,08,02,11,52,28.40
2017,08,02,11,53,28.40
2017,08,02,11,54,28.40
2017,08,02,11,55,28.40
2017,08,02,11,56,28.50
2017,08,02,11,57,28.50
2017,08,02,11,58,28.60
2017,08,02,11,59,28.60
2017,08,02,12,00,28.60
2017,08,02,12,01,28.70
2017,08,02,12,02,28.70
2017,08,02,12,03,28.70
2017,08,02,12,04,28.70
2017,08,02,12,05,28.80
2017,08,02,12,06,28.80
2017,08,02,12,07,28.80
2017,08,02,12,08,28.80
2017,08,02,12,09,28.80
2017,08,02,12,10,28.90
2017,08,02,12,11,28.90
2017,08,02,12,12,28.90
2017,08,02,12,13,28.90
2017,08,02,12,14,28.90
2017,08,02,12,15,29.00
2017,08,02,12,16,29.00
2017,08,02,12,17,29.00
2017,08,02,12,18,29.10
2017,08,02,12,19,29.10
2017,08,02,12,20,29.10
2017,08,02,12,21,29.10
2017,08,02,12,22,29.10
2017,08,02,12,23,29.20
2017,08,02,12,24,29.20
2017,08,02,12,25,29.20
2017,08,02,12,26,29.20
2017,08,02,12,27,29.20
2017,08,02,12,28,29.30
2017,08,02,12,29,29.30
2017,08,02,12,30,29.30
2017,08,02,12,31,29.30
2017,08,02,12,32,29.40
2017,08,02,12,33,29.40
2017,08,02,12,34,29.40
2017,08,02,12,35,29.40
2017,08,02,12,36,29.40
2017,08,02,12,37,29.40
2017,08,02,12,38,29.50
2017,08,02,12,39,29.50
2017,08,02,12,40,29.50
2017,08,02,12,41,29.50
2017,08,02,12,42,29.50
2017,08,02,12,43,29.60
2017,08,02,12,44,29.60
2017,08,02,12,45,29.60
2017,08,02,12,46,29.70
2017,08,02,12,47,29.70
2017,08,02,12,48,29.80
2017,08,02,12,49,29.80
2017,08,02,12,50,29.80
2017,08,02,12,51,29.80
2017,08,02,12,52,29.90
2017,08,02,12,53,29.90
2017,08,02,12,54,30.00
2017,08,02,12,55,30.00
2017,08,02,12,56,30.00
2017,08,02,12,57,30.10
2017,08,02,12,58,30.10
2017,08,02,12,59,30.20
2017,08,02,13,00,30.20
2017,08,02,13,01,30.20
2017,08,02,13,02,30.30
2017,08,02,13,03,30.30
2017,08,02,13,04,30.30
2017,08,02,13,05,30.30
2017,08,02,13,06,30.30
2017,08,02,13,07,30.30
2017,08,02,13,08,30.40
2017,08,02,13,09,30.40
2017,08,02,13,10,30.40
2017,08,02,13,11,30.40
2017,08,02,13,12,30.50
2017,08,02,13,13,30.50
2017,08,02,13,14,30.50
2017,08,02,13,15,30.50
2017,08,02,13,16,30.50
2017,08,02,13,17,30.50
2017,08,02,13,18,30.60
2017,08,02,13,19,30.60
2017,08,02,13,20,30.60
2017,08,02,13,21,30.60
2017,08,02,13,22,30.60
2017,08,02,13,23,30.60
2017,08,02,13,24,30.70
2017,08,02,13,25,30.70
2017,08,02,13,26,30.70
2017,08,02,13,27,30.70
2017,08,02,13,28,30.70
2017,08,02,13,29,30.70
2017,08,02,13,30,30.80
2017,08,02,13,31,30.80
2017,08,02,13,32,30.80
2017,08,02,13,33,30.90
2017,08,02,13,34,30.90
2017,08,02,13,35,31.00
2017,08,02,13,36,31.00
2017,08,02,13,37,31.10
2017,08,02,13,38,31.10
2017,08,02,13,39,31.10
2017,08,02,13,40,31.10
2017,08,02,13,41,31.10
2017,08,02,13,42,31.10
2017,08,02,13,43,31.10
2017,08,02,13,44,31.10
2017,08,02,13,45,31.20
2017,08,02,13,46,31.20
2017,08,02,13,47,31.20
2017,08,02,13,48,31.20
2017,08,02,13,49,31.30
2017,08,02,13,50,31.30
2017,08,02,13,51,31.30
2017,08,02,13,52,31.30
2017,08,02,13,53,31.30
2017,08,02,13,54,31.30
2017,08,02,13,55,31.30
2017,08,02,13,56,31.40
2017,08,02,13,57,31.40
2017,08,02,13,58,31.40
2017,08,02,13,59,31.40
2017,08,02,14,00,31.40
2017,08,02,14,01,31.40
2017,08,02,14,02,31.50
2017,08,02,14,03,31.50
2017,08,02,14,04,31.50
2017,08,02,14,05,31.50
2017,08,02,14,06,31.60
2017,08,02,14,07,31.60
2017,08,02,14,08,31.60
2017,08,02,14,09,31.70
2017,08,02,14,10,31.70
2017,08,02,14,11,31.70
2017,08,02,14,12,31.70
2017,08,02,14,13,31.70
2017,08,02,14,14,31.70
2017,08,02,14,15,31.80
2017,08,02,14,16,31.80
2017,08,02,14,17,31.80
2017,08,02,14,18,31.80
2017,08,02,14,19,31.90
2017,08,02,14,20,31.80
2017,08,02,14,21,31.80
2017,08,02,14,22,31.80
2017,08,02,14,23,31.80
2017,08,02,14,24,31.80
2017,08,02,14,25,31.80
2017,08,02,14,26,31.80
2017,08,02,14,27,31.80
2017,08,02,14,28,31.90
2017,08,02,14,29,31.90
2017,08,02,14,30,31.90
2017,08,02,14,31,32.00
2017,08,02,14,32,32.00
2017,08,02,14,33,32.00
2017,08,02,14,34,32.10
2017,08,02,14,35,32.10
2017,08,02,14,36,32.10
2017,08,02,14,37,32.10
2017,08,02,14,38,32.20
2017,08,02,14,39,32.20
2017,08,02,14,40,32.20
2017,08,02,14,41,32.20
2017,08,02,14,42,32.20
2017,08,02,14,43,32.20
2017,08,02,14,44,32.20
2017,08,02,14,45,32.20
2017,08,02,14,46,32.30
2017,08,02,14,47,32.30
2017,08,02,14,48,32.30
2017,08,02,14,49,32.30
2017,08,02,14,50,32.30
2017,08,02,14,51,32.30
2017,08,02,14,52,32.30
2017,08,02,14,53,32.30
2017,08,02,14,54,32.40
2017,08,02,14,55,32.40
2017,08,02,14,56,32.40
2017,08,02,14,57,32.50
2017,08,02,14,58,32.50
2017,08,02,14,59,32.50
2017,08,02,15,00,32.60
2017,08,02,15,01,32.60
2017,08,02,15,02,32.60
2017,08,02,15,03,32.70
2017,08,02,15,04,32.70
2017,08,02,15,05,32.80
2017,08,02,15,06,32.80
2017,08,02,15,07,32.80
2017,08,02,15,08,32.80
2017,08,02,15,09,32.80
2017,08,02,15,10,32.80
2017,08,02,15,11,32.80
2017,08,02,15,12,32.80
2017,08,02,15,13,32.80
2017,08,02,15,14,32.80
2017,08,02,15,15,32.90
2017,08,02,15,16,32.90
2017,08,02,15,17,32.90
2017,08,02,15,18,32.90
2017,08,02,15,19,32.90
2017,08,02,15,20,32.90
2017,08,02,15,21,32.90
2017,08,02,15,22,32.90
2017,08,02,15,23,32.90
2017,08,02,15,24,32.90
2017,08,02,15,25,32.90
2017,08,02,15,26,32.90
2017,08,02,15,27,33.00
2017,08,02,15,28,33.00
2017,08,02,15,29,33.00
2017,08,02,15,30,33.00
2017,08,02,15,31,33.00
2017,08,02,15,32,33.00
2017,08,02,15,33,33.00
2017,08,02,15,34,33.00
2017,08,02,15,35,33.00
2017,08,02,15,36,33.00
2017,08,02,15,37,33.00
2017,08,02,15,38,33.00
2017,08,02,15,39,33.00
2017,08,02,15,40,33.00
2017,08,02,15,41,33.00
2017,08,02,15,42,33.10
2017,08,02,15,43,33.10
2017,08,02,15,44,33.10
2017,08,02,15,45,33.10
2017,08,02,15,46,33.10
2017,08,02,15,47,33.10
2017,08,02,15,48,33.10
2017,08,02,15,49,33.10
2017,08,02,15,50,33.10
2017,08,02,15,51,33.10
2017,08,02,15,52,33.10
2017,08,02,15,53,33.10
2017,08,02,15,54,33.10
2017,08,02,15,55,33.10
2017,08,02,15,56,33.10
2017,08,02,15,57,33.20
2017,08,02,15,58,33.20
2017,08,02,15,59,33.20
2017,08,02,16,00,33.20
2017,08,02,16,01,33.20
2017,08,02,16,02,33.20
2017,08,02,16,03,33.30
2017,08,02,16,04,33.30
2017,08,02,16,05,33.30
2017,08,02,16,06,33.30
2017,08,02,16,07,33.30
2017,08,02,16,08,33.30
2017,08,02,16,09,33.30
2017,08,02,16,10,33.40
2017,08,02,16,11,33.40
2017,08,02,16,12,33.40
2017,08,02,16,13,33.40
2017,08,02,16,14,33.40
2017,08,02,16,15,33.40
2017,08,02,16,16,33.40
2017,08,02,16,17,33.40
2017,08,02,16,18,33.50
2017,08,02,16,19,33.50
2017,08,02,16,20,33.50
2017,08,02,16,21,33.50
2017,08,02,16,22,33.60
2017,08,02,16,23,33.60
2017,08,02,16,24,33.60
2017,08,02,16,25,33.60
2017,08,02,16,26,33.60
2017,08,02,16,27,33.60
2017,08,02,16,28,33.60
2017,08,02,16,29,33.50
2017,08,02,16,30,33.50
2017,08,02,16,31,33.50
2017,08,02,16,32,33.50
2017,08,02,16,33,33.40
2017,08,02,16,34,33.40
2017,08,02,16,35,33.30
2017,08,02,16,36,33.30
2017,08,02,16,37,33.30
2017,08,02,16,38,33.30
2017,08,02,16,39,33.30
2017,08,02,16,40,33.30
2017,08,02,16,41,33.30
2017,08,02,16,42,33.30
2017,08,02,16,43,33.30
2017,08,02,16,44,33.30
2017,08,02,16,45,33.30
2017,08,02,16,46,33.30
2017,08,02,16,47,33.30
2017,08,02,16,48,33.30
2017,08,02,16,49,33.30
2017,08,02,16,50,33.30
2017,08,02,16,51,33.30
2017,08,02,16,52,33.30
2017,08,02,16,53,33.30
2017,08,02,16,54,33.30
2017,08,02,16,55,33.30
2017,08,02,16,56,33.30
2017,08,02,16,57,33.30
2017,08,02,16,58,33.30
2017,08,02,16,59,33.30
2017,08,02,17,00,33.30
2017,08,02,17,01,33.40
2017,08,02,17,02,33.40
2017,08,02,17,03,33.40
2017,08,02,17,04,33.40
2017,08,02,17,05,33.50
2017,08,02,17,06,33.50
2017,08,02,17,07,33.50
2017,08,02,17,08,33.50
2017,08,02,17,09,33.50
2017,08,02,17,10,33.50
2017,08,02,17,11,33.50
2017,08,02,17,12,33.60
2017,08,02,17,13,33.60
2017,08,02,17,14,33.60
2017,08,02,17,15,33.60
2017,08,02,17,16,33.50
2017,08,02,17,17,33.50
2017,08,02,17,18,33.50
2017,08,02,17,19,33.50